CDT,Max TemperatureF,Mean TemperatureF,Min TemperatureF,Max Dew PointF,MeanDew PointF,Min DewpointF,Max Humidity, Mean Humidity, Min Humidity, Max Sea Level PressureIn, Mean Sea Level PressureIn, Min Sea Level PressureIn, Max VisibilityMiles, Mean VisibilityMiles, Min VisibilityMiles, Max Wind SpeedMPH, Mean Wind SpeedMPH, Max Gust SpeedMPH,PrecipitationIn, CloudCover, Events, WindDirDegrees
2013-6-1,73,68,62,67,63,58,93,83,73,29.75,29.71,29.68,10,9,1,22,12,30,0.32,7,Rain-Thunderstorm,204
2013-6-2,62,54,45,59,52,45,93,80,67,30.06,29.92,29.74,10,10,8,21,9,24,0.00,6,,329
2013-6-3,68,55,41,51,46,41,100,73,45,30.14,30.09,30.04,10,5,0,10,3,13,0.00,3,Fog,143
2013-6-4,72,58,44,49,46,44,93,67,40,30.16,30.12,30.08,10,10,10,16,7,21,T,1,Rain,105
2013-6-5,71,63,54,56,50,45,77,67,57,30.10,30.01,29.94,10,10,10,18,9,22,0.05,7,Rain,61
2013-6-6,67,60,53,55,52,47,93,75,56,29.94,29.91,29.89,10,9,5,18,9,22,0.24,5,Rain,48
2013-6-7,71,61,50,54,48,42,83,63,42,29.95,29.93,29.91,10,10,10,17,8,22,0.00,3,,38
2013-6-8,76,61,45,47,44,38,93,62,31,30.01,29.97,29.93,10,10,10,13,3,15,0.00,1,,96
2013-6-9,82,68,54,64,55,45,89,66,42,30.00,29.90,29.80,10,10,7,24,10,30,0.05,3,Rain,129
2013-6-10,80,70,59,64,62,59,100,77,54,29.87,29.79,29.76,10,7,2,16,6,21,0.04,4,Rain,350
2013-6-11,85,71,57,67,62,57,100,72,43,29.94,29.88,29.80,10,9,4,14,4,15,T,2,Rain-Thunderstorm,219
2013-6-12,89,77,64,73,67,63,97,78,59,29.91,29.72,29.60,10,7,1,26,8,33,1.76,5,Rain-Thunderstorm,79
2013-6-13,79,68,57,63,58,53,93,69,45,30.05,29.89,29.66,10,10,7,18,10,23,0.01,3,,15
2013-6-14,78,65,52,58,53,49,89,67,45,30.15,30.07,30.01,10,10,10,15,7,20,0.00,0,,71
2013-6-15,80,70,59,68,62,51,90,76,62,30.06,29.96,29.87,10,10,8,32,7,44,0.02,3,Rain-Thunderstorm,185
2013-6-16,85,75,64,67,63,58,93,68,43,29.93,29.90,29.88,10,10,10,16,7,21,0.00,3,,256
2013-6-17,88,73,58,63,58,51,97,63,29,29.95,29.91,29.86,10,10,9,17,6,22,0.03,3,Rain-Thunderstorm,282
2013-6-18,73,64,54,58,54,46,86,70,53,30.08,30.01,29.91,10,10,10,20,11,24,0.00,2,,42
2013-6-19,80,67,53,57,51,46,83,61,39,30.14,30.10,30.07,10,10,10,14,6,16,0.00,1,,75
2013-6-20,88,72,55,64,58,47,78,59,40,30.15,30.11,30.05,10,10,10,13,5,16,0.00,1,,136
2013-6-21,83,75,67,68,65,61,93,76,58,30.17,30.08,29.92,10,8,1,28,9,35,0.79,3,Rain-Thunderstorm,157
2013-6-22,79,73,67,72,68,64,93,85,76,30.10,30.04,29.96,10,9,2,22,7,28,0.05,4,Rain-Thunderstorm,183
2013-6-23,86,75,64,73,68,62,100,85,69,30.04,29.99,29.93,10,9,5,26,9,39,T,1,Rain-Thunderstorm,183
2013-6-24,83,75,66,73,67,63,100,83,65,30.06,30.00,29.90,10,8,1,38,7,56,0.00,4,Rain-Thunderstorm,219
2013-6-25,85,76,67,74,69,65,93,82,70,29.98,29.89,29.81,10,8,2,23,7,33,0.02,4,Rain-Thunderstorm,174
2013-6-26,81,74,67,71,67,64,97,83,69,29.81,29.77,29.72,10,10,6,26,9,33,T,4,Rain-Thunderstorm,136
2013-6-27,88,76,63,73,66,61,100,74,48,29.80,29.76,29.70,10,6,0,23,9,35,0.00,0,Fog,285
2013-6-28,82,72,61,65,62,60,93,72,51,29.72,29.67,29.62,10,9,0,39,9,52,0.17,2,Fog-Rain-Thunderstorm,296
2013-6-29,70,65,60,64,62,54,100,82,63,29.78,29.66,29.60,10,8,5,20,8,24,0.07,7,Rain-Thunderstorm,7
2013-6-30,80,70,60,60,54,43,90,66,41,29.99,29.89,29.78,10,10,8,21,11,25,0.00,4,,20